Fairbanks, AK

12:17 PM AKST on December 12, 2019 (GMT -0900)
Fairbanks International

Weather History for PAFA - November, 2019

Change the Weather History Date:

Tuesday, November 12, 2019

  Actual Average Record
Temperature  
Mean Temperature 12 °F 3 °F  
Max Temperature 20 °F 12 °F 41 °F (1976)
Min Temperature 3 °F -3 °F -36 °F (1989)
Degree Days  
Heating Degree Days 54 62  
Month to date heating degree days 620 699  
Since 1 July heating degree days 2452 2958  
Cooling Degree Days 0 0  
Month to date cooling degree days 0 0  
Year to date cooling degree days 123 61  
Moisture  
Dew Point 3 °F    
Average Humidity 73    
Maximum Humidity 88    
Minimum Humidity 50    
Precipitation  
Precipitation 0.00 in 0.03 in 0.45 in (2017)
Month to date precipitation 1.07 0.28  
Year to date precipitation 15.26 9.78  
Snow  
Snow 0.00 in 0.50 in 4.90 in (2017)
Month to date snowfall 11.1 5.3  
Since 1 July snowfall 14.4 17.9  
Since 1 September snowfall 14.4 17.9  
Snow Depth 8.00 in    
Sea Level Pressure  
Sea Level Pressure 29.91 in    
Wind  
Wind Speed 3 mph ()    
Max Wind Speed 15 mph    
Max Gust Speed -    
Visibility 10.0 miles    
Events      
T = Trace of Precipitation, MM = Missing Value Source: Averaged Metar Reports

Daily Weather History Graph

Daily Weather History Graph

Search for Another Location

Airport or City:

Astronomy

Nov. 12, 2019 Rise Set
Actual Time 9:16 AM AKST 3:54 PM AKST
Civil Twilight 8:15 AM AKST 4:54 PM AKST
Nautical Twilight 7:13 AM AKST 5:56 PM AKST
Astronomical Twilight 6:16 AM AKST 6:53 PM AKST
Moon 4:35 PM AKST 9:01 AM AKST
Length of Visible Light 8h 39m
Length of Day
6h 37m
Full, 100% of the Moon is Illuminated
Nov 12
Full
Nov 19
Last Quarter
Nov 26
New
Dec 3
First Quarter
Dec 11
Full

Hourly Weather History & Observations

Time (AKST) Temp. Windchill Dew Point Humidity Pressure Visibility Wind Dir Wind Speed Gust Speed Precip Events Conditions
12:53 AM 15.1 °F - 6.1 °F 68% 29.86 in 10.0 mi Calm Calm - N/A   Partly Cloudy
1:53 AM 10.0 °F - 5.0 °F 80% 29.86 in 10.0 mi Calm Calm - N/A   Partly Cloudy
2:53 AM 8.1 °F - 3.9 °F 83% 29.86 in 10.0 mi Calm Calm - N/A   Scattered Clouds
3:53 AM 8.1 °F - 3.9 °F 83% 29.86 in 10.0 mi Calm Calm - N/A   Scattered Clouds
4:53 AM 9.0 °F - 6.1 °F 88% 29.86 in 10.0 mi Calm Calm - N/A   Scattered Clouds
5:53 AM 9.0 °F - 5.0 °F 84% 29.86 in 10.0 mi Calm Calm - N/A   Mostly Cloudy
6:53 AM 8.1 °F - 3.9 °F 83% 29.87 in 10.0 mi Calm Calm - N/A   Mostly Cloudy
7:53 AM 7.0 °F - 3.0 °F 84% 29.87 in 10.0 mi Calm Calm - N/A   Mostly Cloudy
8:53 AM 3.9 °F - -0.0 °F 84% 29.89 in 10.0 mi Calm Calm - N/A   Mostly Cloudy
9:53 AM 3.9 °F - -0.0 °F 84% 29.90 in 10.0 mi Calm Calm - N/A   Scattered Clouds
10:53 AM 5.0 °F - 1.9 °F 87% 29.90 in 10.0 mi Calm Calm - N/A   Partly Cloudy
11:53 AM 9.0 °F - 5.0 °F 84% 29.90 in 10.0 mi Calm Calm - N/A   Partly Cloudy
12:53 PM 10.9 °F - 7.0 °F 84% 29.90 in 10.0 mi Calm Calm - N/A   Partly Cloudy
1:53 PM 12.0 °F 2.7 °F 6.1 °F 77% 29.91 in 10.0 mi NE 5.8 mph - N/A   Partly Cloudy
2:53 PM 14.0 °F 3.9 °F 8.1 °F 77% 29.91 in 10.0 mi NE 6.9 mph - N/A   Partly Cloudy
3:53 PM 18.0 °F 9.8 °F 9.0 °F 68% 29.92 in 10.0 mi NNE 5.8 mph - N/A   Partly Cloudy
5:53 PM 19.9 °F 7.9 °F 8.1 °F 60% 29.94 in 10.0 mi North 11.5 mph - N/A   Mostly Cloudy
6:53 PM 19.9 °F 6.2 °F 3.9 °F 50% 29.95 in 10.0 mi NNE 15.0 mph - N/A   Mostly Cloudy
7:53 PM 17.1 °F 3.0 °F 1.9 °F 52% 29.97 in 10.0 mi North 13.8 mph - N/A   Mostly Cloudy
8:53 PM 14.0 °F -0.2 °F -0.9 °F 52% 29.99 in 10.0 mi North 12.7 mph - N/A   Mostly Cloudy
9:53 PM 12.0 °F -3.4 °F -2.0 °F 53% 29.99 in 10.0 mi North 13.8 mph - N/A   Mostly Cloudy
10:53 PM 10.9 °F -4.1 °F -2.9 °F 54% 29.99 in 10.0 mi North 12.7 mph - N/A   Mostly Cloudy
11:53 PM 10.0 °F -4.5 °F -4.0 °F 53% 30.00 in 10.0 mi North 11.5 mph - N/A   Mostly Cloudy